Location: Mohawk View
(42.7837°N, 73.7885°W)
Time: 05:01:20
(UTC+00:00)

Meteor 2-5 Rocket - Pass Details

Date: 17 June 2021
Orbit: 833 x 911 km, 81.2° (Epoch: 03 August)

Event Time Altitude Azimuth Distance (km) Brightness Sun altitude
Exits shadow 03:31:45 29° 208° (SSW) 1,482 4.6 -21.0°
Maximum altitude 03:34:35 66° 282° (WNW) 913 3.9 -21.2°
Drops below altitude 10° 03:40:09 10° 5° (N) 2,476 7.1 -21.6°
Sets 03:42:37 0° 8° (N) 3,425 7.9 -21.7°
